Location: Lachepaillet
(43.4918°N, 1.4874°W)
Time: 00:36:34
(UTC+00:00)

Cosmos 2180 Rocket - Pass Details

Date: 15 May 2026
Orbit: 954 x 1003 km, 82.9° (Epoch: 9 June)

Event Time Altitude Azimuth Distance (km) Brightness Sun altitude
Exits shadow 23:32:25 68° 202° (SSW) 1,051 4.4 -27.1°
Maximum altitude 23:33:17 84° 278° (W) 993 4.4 -27.1°
Drops below altitude 10° 23:39:39 10° 7° (N) 2,762 7.8 -27.2°
Sets 23:42:12 0° 8° (N) 3,721 8.7 -27.3°
